SITRO-AIS G

Last updated on Sun Apr 21 2024 00:03:33 GMT+0000 (Coordinated Universal Time)

1 59057U 24039G 24111.59464120 .00036706 00000+0 14664-2 0 9998 2 59057 97.3879 74.2231 0021137 66.1268 294.2182 15.24828718 7813
UTC large
Height (km)
Speed (km/s)
/
Latitude / Longitude
Inclination (degrees)
Orbital Period (minutes)
Azimuth
Elevation
Range (km)
Doppler Factor

Next 0 passes for location: London (51.5072 / 0.1276)

Sorry there are no passes over London.